Regional Weather Roundup
Issued by NWS Charleston, WV

Home | Current Version | Previous Version | Text Only | Print | Product List | Glossary Off
Versions: 1 2 3 4 5 6 7 8 9 10 11 12 13 14 15 16 17 18 19 20 21 22 23 24 25 26 27 28 29 30 31 32 33 34 35 36 37 38 39 40 41 42 43 44 45 46 47 48 49 50

000
ASUS41 KRLX 172310
RWRRLX
West Virginia Regional Weather Roundup
National Weather Service Charleston WV
700 PM EDT FRI APR 17 2015

Note: "fair" indicates few or no clouds below 12,000 feet with no
significant weather and/or obstructions to visibility.

WVZ003-180000-
Northern Panhandle of West Virginia

CITY           SKY/WX    TMP DP  RH WIND       PRES   REMARKS
WHEELING       SUNNY     70  47  43 NW8       30.01S
$$

WVZ009-180000-
Northwest West Virginia

CITY           SKY/WX    TMP DP  RH WIND       PRES   REMARKS
PARKERSBURG    MOSUNNY   74  50  42 NW7       30.02S
$$

WVZ006-180000-
Western West Virginia

CITY           SKY/WX    TMP DP  RH WIND       PRES   REMARKS
HUNTINGTON     CLOUDY    73  57  57 CALM      29.99S
$$

WVZ015-180000-
West Central West Virginia

CITY           SKY/WX    TMP DP  RH WIND       PRES   REMARKS
CHARLESTON     PTSUNNY   74  54  49 VRB5      30.00S
$$

WVZ022-031-180000-
North Central West Virginia

CITY           SKY/WX    TMP DP  RH WIND       PRES   REMARKS
CLARKSBURG     MOSUNNY   66  58  75 S7        30.01F
MORGANTOWN     MOSUNNY   69  53  56 VRB3      30.02S
$$

WVZ025-035-042-045-180000-
Southern West Virginia

CITY           SKY/WX    TMP DP  RH WIND       PRES   REMARKS
BECKLEY        PTSUNNY   69  49  48 NW8       30.05S
LOGAN            N/A     72  55  56 CALM      29.99S
BLUEFIELD      PTSUNNY   72  44  36 N6        30.05S
LEWISBURG      PTSUNNY   71  51  48 W3        30.03F
$$

WVZ047-180000-
Northern Mountains of West Virginia

CITY           SKY/WX    TMP DP  RH WIND       PRES   REMARKS
ELKINS         MOSUNNY   65  54  67 CALM      30.05F
$$

WVZ052-180000-
Eastern Panhandle of West Virginia

CITY           SKY/WX    TMP DP  RH WIND       PRES   REMARKS
MARTINSBURG    PTCLDY    73  53  49 W7        29.96S
PETERSBURG     PTCLDY    69  51  53 W6        30.00F
$$


USA.gov is the U.S. government's official web portal to all federal, state and local government web resources and services.